Weather Roundup
Issued by NWS

Home | Current Version | Previous Version | Text Only | Print | Product List | Glossary On
Versions: 1 2 3 4 5 6 7 8 9 10 11 12 13 14 15 16 17 18 19 20 21 22 23 24 25 26 27 28 29 30 31 32 33 34 35 36 37 38 39 40 41 42 43 44 45 46 47 48 49 50
000
NZUS93 KARX 230810
HRRWXR

CURRENT HOURLY OBSERVATIONS ACROSS
MUCH OF THE UPPER MISSISSIPPI VALLEY
NATIONAL WEATHER SERVICE LA CROSSE WI
300 AM CDT SAT SEP 23 2017


...SOUTHEAST MINNESOTA...


CITY           SKY/WX    TMP DP  RH WIND       PRES   REMARKS
ROCHESTER      CLEAR     73  66  78 S10       29.94R
ROCHESTER/MAYO FAIR      75  66  71 SE9       29.93S
WINONA         PTCLDY    77  63  61 W5        29.92S
AUSTIN         CLEAR     72  64  78 S7        29.94R
ALBERT LEA     CLEAR     79  68  69 S9        29.92S
DODGE CENTER   CLEAR     73  64  73 S13G20    29.92S
PRESTON        CLEAR     72  64  77 SW10      29.95S
OWATONNA       CLEAR     73  66  78 S8        29.91R
FARIBAULT      CLEAR     75  66  73 S8        29.90S
$$

...ELSEWHERE IN MINNESOTA...


CITY           SKY/WX    TMP DP  RH WIND       PRES   REMARKS
MINNEAPOLIS    MOCLDY    81  69  67 S12G24    29.86S
INTNL FALLS    MOCLDY    67  64  90 SE8       29.74R
DULUTH         LGT RAIN  75  69  81 SW17      29.83R
RED WING       CLEAR     79  63  57 CALM      29.90R
REDWOOD FALLS  PTCLDY    77  67  71 SW10      29.83R
MANKATO        PTCLDY    75  68  78 S8        29.88
WORTHINGTON    CLEAR     74  68  81 S12G18    29.89R
FAIRMONT       CLEAR     74  68  81 S12       29.90R
$$

...SOUTHWEST WISCONSIN...


CITY           SKY/WX    TMP DP  RH WIND       PRES   REMARKS
LA CROSSE      CLEAR     77  67  71 S7        29.93S
PRAIRIE DU CHI PTCLDY    76  62  60 SE3       29.97S
BOSCOBEL       CLEAR     71  65  81 CALM      29.98S
LONE ROCK      CLEAR     66  64  93 E3        29.99F
PLATTEVILLE    CLEAR     71  66  87 SE9       30.01F
FORT MC COY    CLEAR     76  65  67 S10       29.96S
CAMP DOUGLAS   CLEAR     69  64  84 CALM      29.97R
MAUSTON-NEW LI SUNNY     75  65  71 S5        29.98R
VIROQUA        FAIR      72  66  81 S7        30.00S
WIS DELLS      CLEAR     72  62  70 SW6       30.00S
$$

...ELSEWHERE IN WISCONSIN...


CITY           SKY/WX    TMP DP  RH WIND       PRES   REMARKS
MILWAUKEE      CLEAR     75  67  76 SW6       30.02S
MADISON        CLEAR     71  64  78 S3        30.01S
GREEN BAY      CLEAR     68  67  96 S3        29.99S
EAU CLAIRE     PTCLDY    75  66  73 S7        29.91R
BLACK RVR FLS  FAIR      73  63  71 S3        29.94S
MEDFORD        CLEAR     65  63  92 CALM      29.98R
WAUSAU         CLEAR     71  64  78 CALM      29.97S
WIS RAPIDS     CLEAR     72  65  78 S7        29.99S
MARSHFIELD     CLEAR     70  63  78 S8        29.97R
RICE LAKE      CLOUDY    72  65  80 SE7       29.93R
$$

...NORTHEAST IOWA...


CITY           SKY/WX    TMP DP  RH WIND       PRES   REMARKS
WATERLOO       CLEAR     70  65  84 S7        29.96S
DUBUQUE        CLEAR     69  63  81 S6        30.01F
DECORAH        CLEAR     73  64  73 S7        29.96F
MASON CITY     PTCLDY    71  66  84 S8        29.94F
CHARLES CITY   CLEAR     72  68  88 S7        29.96S
OELWEIN        CLEAR     66  66 100 S7        29.99S
$$

...ELSEWHERE IN IOWA...


CITY           SKY/WX    TMP DP  RH WIND       PRES   REMARKS
DES MOINES     CLEAR     74  67  78 S7        29.94F
IOWA CITY      PTCLDY    69  64  84 CALM      30.00S
FORT DODGE     CLEAR     75  32  20 S13       29.92F
MARSHALLTOWN   CLEAR     70  67  90 S7        29.96S
CEDAR RAPIDS   CLEAR     71  32  23 S6        29.98F
$$

...NORTHERN ILLINOIS...


CITY           SKY/WX    TMP DP  RH WIND       PRES   REMARKS
CHICAGO-OHARE  CLEAR     73  65  75 CALM      30.03S
CHICAGO-MIDWAY CLEAR     79  67  66 CALM      30.03F
MOLINE         CLEAR     71  63  75 CALM      30.00S
ROCKFORD       CLEAR     70  64  81 CALM      30.03F
PEORIA         CLEAR     75  65  70 S3        30.02F
$$

NOTE: "FAIR" INDICATES FEW OR NO CLOUDS BELOW 12,000 FEET WITH NO
SIGNIFICANT WEATHER AND/OR OBSTRUCTIONS TO VISIBILITY. WIND
SPEEDS ARE IN MILES-PER-HOUR.




USA.gov is the U.S. government's official web portal to all federal, state and local government web resources and services.